NY5V Weather Reports


time (UTC)temp
F
wind
direction
speed
knots
gust
knots
rain 1hr
in
rain 24hr
in
rain mn
in
humidity
%
barometer
mb
20260505153015 73 10 5.2 7.0 0.00 0.00 0.00 86 1007.3
20260505152013 73 344 2.6 3.5 0.00 0.00 0.00 86 1007.5
20260505151011 73 308 2.6 5.2 0.00 0.00 0.00 86 1007.6
20260505124949 69 48 1.7 2.6 0.00 0.00 0.00 92 1007.4
20260505123947 70 6 2.6 2.6 0.00 0.00 0.00 91 1007.0
20260505122946 70 31 3.5 3.5 0.00 0.00 0.00 90 1007.2
20260505121946 70 353 1.7 2.6 0.00 0.00 0.00 90 1006.8
20260505120944 70 314 3.5 5.2 0.00 0.00 0.00 90 1006.8
20260505115940 70 32 0.9 1.7 0.00 0.00 0.00 90 1006.6
20260505114935 69 8 2.6 5.2 0.00 0.00 0.00 90 1006.6
20260505113934 69 67 5.2 7.0 0.00 0.00 0.00 90 1006.7
20260505112931 69 343 4.3 7.0 0.00 0.00 0.00 90 1006.7
20260505111931 69 64 2.6 3.5 0.00 0.00 0.00 90 1006.7
20260505110928 69 54 0.9 0.9 0.00 0.00 0.00 90 1006.8
20260505101926 69 355 1.7 3.5 0.00 0.00 0.00 90 1006.5
20260505100922 69 28 1.7 2.6 0.00 0.00 0.00 90 1006.5
20260505095921 69 45 0.9 1.7 0.00 0.00 0.00 90 1006.4
20260505094920 68 49 1.7 2.6 0.00 0.00 0.00 90 1006.1
20260505093919 68 37 0.9 1.7 0.00 0.00 0.00 90 1006.4
20260505092919 68 46 3.5 5.2 0.00 0.00 0.00 90 1006.5
20260505091914 68 33 1.7 2.6 0.00 0.00 0.00 90 1006.5
20260505090909 68 42 1.7 1.7 0.00 0.00 0.00 90 1006.8
20260505085904 68 296 2.6 6.1 0.00 0.00 0.00 90 1006.6
20260505084900 68 299 3.5 5.2 0.00 0.00 0.00 90 1006.9
20260505083856 68 251 3.5 6.1 0.00 0.00 0.00 90 1006.9
20260505082855 68 45 3.5 5.2 0.00 0.00 0.00 90 1006.9
20260505081854 68 287 7.0 11.3 0.00 0.00 0.00 90 1007.1
20260505080853 68 49 1.7 3.5 0.00 0.00 0.00 90 1007.2
20260505075851 68 49 0.9 0.9 0.00 0.00 0.00 90 1007.2
20260505074845 68 181 3.5 6.1 0.00 0.00 0.00 90 1007.4
20260505073845 68 17 0.9 0.9 0.00 0.00 0.00 90 1007.6
20260505072846 68 40 1.7 2.6 0.00 0.00 0.00 89 1007.6
20260505071844 68 339 3.5 5.2 0.00 0.00 0.00 89 1007.7
20260505070839 68 352 0.9 1.7 0.00 0.00 0.00 88 1008.0
20260505065836 68 246 3.5 5.2 0.00 0.00 0.00 88 1007.8
20260505064836 68 45 0.9 0.9 0.00 0.00 0.00 88 1008.0
20260505063831 68 27 1.7 3.5 0.00 0.00 0.00 87 1008.1
20260505062829 68 25 2.6 2.6 0.00 0.00 0.00 87 1008.2
20260505061829 69 34 0.0 0.9 0.00 0.00 0.00 86 1008.2
20260505060825 69 32 2.6 7.0 0.00 0.00 0.00 86 1008.4
20260505055823 69 47 1.7 2.6 0.00 0.00 0.00 86 1008.3
20260505054823 69 47 1.7 1.7 0.00 0.00 0.00 85 1008.3
20260505053818 69 32 0.9 0.9 0.00 0.00 0.00 84 1008.5
20260505052817 69 43 0.9 1.7 0.00 0.00 0.00 84 1008.6
20260505051816 70 21 2.6 2.6 0.00 0.00 0.00 83 1008.3
20260505050812 70 40 0.9 0.9 0.00 0.00 0.00 83 1008.7
20260505040803 71 4 3.5 6.1 0.00 0.00 0.00 79 1008.8
20260505035803 71 309 3.5 5.2 0.00 0.00 0.00 78 1008.9
20260505034802 71 80 0.9 2.6 0.00 0.00 0.00 77 1008.8
20260505033802 72 5 1.7 1.7 0.00 0.00 0.00 76 1008.8
20260505032757 72 90 1.7 1.7 0.00 0.00 0.00 75 1008.7
20260505031756 72 15 2.6 2.6 0.00 0.00 0.00 74 1008.5
20260505030756 73 13 1.7 2.6 0.00 0.00 0.00 73 1008.5
20260505025753 73 47 0.0 0.0 0.00 0.00 0.00 73 1008.3
20260505024749 73 10 1.7 3.5 0.00 0.00 0.00 71 1008.2
20260505023749 73 49 0.9 0.9 0.00 0.00 0.00 71 1008.2
20260505022749 73 4 0.9 1.7 0.00 0.00 0.00 70 1008.4
20260505021749 73 28 0.9 1.7 0.00 0.00 0.00 69 1008.3
20260505020747 74 50 1.7 1.7 0.00 0.00 0.00 68 1008.5
20260505015746 74 80 0.9 1.7 0.00 0.00 0.00 68 1008.6
20260505014746 74 39 0.9 0.9 0.00 0.00 0.00 68 1008.4
20260505013745 74 45 0.0 0.9 0.00 0.00 0.00 67 1008.6
20260505012740 74 37 1.7 3.5 0.00 0.00 0.00 66 1008.2
20260505011739 75 38 3.5 5.2 0.00 0.00 0.00 65 1008.1
20260505010738 75 31 2.6 2.6 0.00 0.00 0.00 64 1008.4
20260505005737 75 37 1.7 1.7 0.00 0.00 0.00 64 1008.2
20260505004737 76 37 0.9 1.7 0.00 0.00 0.00 63 1008.1
20260505003736 76 38 0.9 0.9 0.00 0.00 0.00 61 1008.2
20260505002736 77 22 1.7 2.6 0.00 0.00 0.00 60 1008.1
20260505001737 77 337 0.9 2.6 0.00 0.00 0.00 60 1008.3
20260505000737 77 49 0.9 1.7 0.00 0.00 0.00 60 1008.3
20260504235731 78 354 3.5 3.5 0.00 0.00 0.00 59 1008.4
20260504234730 78 353 2.6 3.5 0.00 0.00 0.00 59 1008.7
20260504233729 78 31 2.6 3.5 0.00 0.00 0.00 58 1008.8
20260504232728 78 55 1.7 1.7 0.00 0.00 0.00 59 1008.9
20260504231728 79 46 2.6 5.2 0.00 0.00 0.00 57 1008.9
20260504230726 78 356 1.7 2.6 0.00 0.00 0.00 57 1008.9
20260504225723 79 51 0.0 0.9 0.00 0.00 0.00 57 1008.8
20260504224722 79 354 1.7 1.7 0.00 0.00 0.00 57 1009.0
20260504223722 79 54 2.6 3.5 0.00 0.00 0.00 57 1009.2
20260504222720 79 50 0.0 0.0 0.00 0.00 0.00 55 1009.3
20260504221720 79 312 0.9 3.5 0.00 0.00 0.00 55 1009.3
20260504220720 80 352 1.7 6.1 0.00 0.00 0.00 53 1009.4
20260504215720 79 50 1.7 2.6 0.00 0.00 0.00 54 1009.3
20260504214718 78 45 2.6 5.2 0.00 0.00 0.00 53 1009.7
20260504213718 79 297 1.7 2.6 0.00 0.00 0.00 53 1010.1
20260504212717 79 290 1.7 2.6 0.00 0.00 0.00 55 1010.0
20260504211717 80 313 5.2 7.0 0.00 0.00 0.00 52 1010.4
20260504210716 79 37 0.9 1.7 0.00 0.00 0.00 51 1010.4
20260504205716 79 305 0.9 2.6 0.00 0.00 0.00 52 1010.5
20260504204712 79 29 1.7 2.6 0.00 0.00 0.00 51 1010.9
20260504203709 78 34 2.6 3.5 0.00 0.00 0.00 52 1011.1
20260504202706 79 345 4.3 6.1 0.00 0.00 0.00 52 1011.2
20260504201700 78 319 7.0 8.7 0.00 0.00 0.00 50 1011.4
20260504200655 78 297 4.3 7.0 0.00 0.00 0.00 52 1011.6
20260504195653 79 13 1.7 1.7 0.00 0.00 0.00 52 1011.6
20260504194652 78 311 3.5 5.2 0.00 0.00 0.00 52 1012.1
20260504193650 79 326 2.6 3.5 0.00 0.00 0.00 51 1012.4
20260504192646 77 46 0.9 0.9 0.00 0.00 0.00 53 1012.1
20260504191642 77 12 4.3 6.1 0.00 0.00 0.00 52 1012.2
20260504190640 78 305 5.2 7.8 0.00 0.00 0.00 50 1012.5
20260504185639 77 44 0.9 0.9 0.00 0.00 0.00 52 1012.6
20260504184638 78 319 3.5 3.5 0.00 0.00 0.00 51 1012.6
20260504183636 78 18 1.7 1.7 0.00 0.00 0.00 50 1012.8
20260504182631 77 37 3.5 5.2 0.00 0.00 0.00 51 1013.3
20260504181631 78 0 1.7 1.7 0.00 0.00 0.00 51 1013.3
20260504180628 78 30 1.7 2.6 0.00 0.00 0.00 50 1013.5
20260504175623 77 49 0.9 0.9 0.00 0.00 0.00 52 1013.5
20260504174618 76 20 0.9 0.9 0.00 0.00 0.00 52 1013.7
20260504173617 77 354 0.9 1.7 0.00 0.00 0.00 50 1013.8
20260504172616 76 31 1.7 2.6 0.00 0.00 0.00 51 1014.1
20260504171615 75 35 2.6 2.6 0.00 0.00 0.00 53 1014.1
20260504170614 74 353 2.6 3.5 0.00 0.00 0.00 51 1014.2